GW2953 Weather Reports


Display with metric or nautical units.
time (UTC)temp
F
wind
direction
speed
MPH
gust
MPH
rain 1hr
in
rain 24hr
in
rain mn
in
humidity
%
barometer
mb
20260502194525 75 160 3.0 4.0 0.00 0.00 0.00 45 1011.6
20260502194021 74 196 3.0 7.0 0.00 0.00 0.00 45 1011.7
20260502193518 75 111 3.0 5.0 0.00 0.00 0.00 47 1011.7
20260502193015 73 214 2.0 7.0 0.00 0.00 0.00 47 1011.7
20260502192510 73 272 1.0 5.0 0.00 0.00 0.00 48 1011.8
20260502192008 73 167 3.0 7.0 0.00 0.00 0.00 50 1011.8
20260502191505 72 208 4.0 9.0 0.00 0.00 0.00 46 1011.7
20260502191003 73 234 5.0 9.0 0.00 0.00 0.00 47 1011.6
20260502190500 72 182 5.0 11.0 0.00 0.00 0.00 49 1011.7
20260502185956 72 201 4.0 11.0 0.00 0.00 0.00 48 1011.8
20260502185452 72 205 9.0 9.0 0.00 0.00 0.00 46 1011.8
20260502184949 71 175 7.0 11.0 0.00 0.00 0.00 48 1011.8
20260502184444 71 231 6.0 10.0 0.00 0.00 0.00 49 1011.7
20260502183941 71 220 3.0 11.0 0.00 0.00 0.00 49 1011.8
20260502183437 71 221 4.0 11.0 0.00 0.00 0.00 50 1012.0
20260502182932 71 216 4.0 11.0 0.00 0.00 0.00 49 1011.8
20260502182427 72 225 1.0 8.0 0.00 0.00 0.00 51 1011.7
20260502181924 71 200 5.0 10.0 0.00 0.00 0.00 50 1011.5
20260502181423 73 215 2.0 4.0 0.00 0.00 0.00 56 1011.6
20260502180921 72 211 4.0 8.0 0.00 0.00 0.00 52 1011.8
20260502180418 71 273 5.0 7.0 0.00 0.00 0.00 56 1011.7
20260502170336 69 205 5.0 7.0 0.00 0.00 0.00 68 1011.7
20260502164324 65 185 2.0 5.0 0.00 0.00 0.00 78 1011.8
20260502163820 66 173 0.0 3.0 0.00 0.00 0.00 75 1011.7
20260502163316 66 117 0.0 2.0 0.00 0.00 0.00 76 1011.7
20260502162814 66 126 3.0 4.0 0.00 0.00 0.00 75 1011.5
20260502162311 65 142 0.0 1.0 0.00 0.00 0.00 76 1011.7
20260502161808 63 164 2.0 3.0 0.00 0.00 0.00 79 1011.7
20260502161303 64 158 3.0 4.0 0.00 0.00 0.00 80 1011.8
20260502160802 62 146 0.0 4.0 0.00 0.00 0.00 82 1011.5
20260502160301 62 125 3.0 4.0 0.00 0.00 0.00 84 1011.3
20260502152229 58 327 0.0 2.0 0.00 0.00 0.00 90 1011.5
20260502151727 58 55 3.0 3.0 0.00 0.00 0.00 91 1011.7
20260502151224 58 266 1.0 2.0 0.00 0.00 0.00 91 1011.3
20260502150722 57 277 0.0 1.0 0.00 0.00 0.00 90 1011.3
20260502150218 57 58 1.0 2.0 0.00 0.00 0.00 89 1011.5
20260502130607 55 212 0.0 1.0 0.00 0.00 0.00 90 1011.0
20260502130104 55 311 0.0 3.0 0.00 0.00 0.00 90 1011.0
20260502123550 55 57 2.0 3.0 0.00 0.00 0.00 91 1011.0
20260502123046 55 175 2.0 2.0 0.00 0.00 0.00 91 1011.1
20260502122543 55 236 0.0 2.0 0.00 0.00 0.00 91 1011.1
20260502122040 54 295 2.0 4.0 0.00 0.00 0.00 91 1011.1
20260502121537 55 81 1.0 4.0 0.00 0.00 0.00 91 1011.1
20260502121035 55 247 1.0 2.0 0.00 0.00 0.00 91 1011.1
20260502120531 54 309 3.0 3.0 0.00 0.00 0.00 91 1011.1
20260502115526 55 207 2.0 2.0 0.00 0.00 0.00 91 1011.1
20260502115021 54 42 2.0 3.0 0.00 0.00 0.00 90 1011.3
20260502114518 54 48 3.0 5.0 0.00 0.00 0.00 90 1011.1
20260502114015 55 71 3.0 4.0 0.00 0.00 0.00 90 1011.2
20260502113513 55 288 3.0 5.0 0.00 0.00 0.00 91 1011.2
20260502113012 54 312 1.0 3.0 0.00 0.00 0.00 91 1011.4
20260502112509 54 208 2.0 3.0 0.00 0.00 0.00 91 1011.2
20260502112006 54 56 1.0 4.0 0.00 0.00 0.00 90 1011.3
20260502111503 55 50 3.0 3.0 0.00 0.00 0.00 90 1011.3
20260502111001 55 64 1.0 2.0 0.00 0.00 0.00 91 1011.3
20260502110458 55 150 0.0 2.0 0.00 0.00 0.00 89 1011.4
20260502105955 55 74 2.0 3.0 0.00 0.00 0.00 89 1011.4
20260502105453 56 101 3.0 3.0 0.00 0.00 0.00 89 1011.3
20260502104950 55 313 2.0 4.0 0.00 0.00 0.00 90 1011.4
20260502104447 55 326 2.0 4.0 0.00 0.00 0.00 88 1011.3
20260502103945 55 299 1.0 2.0 0.00 0.00 0.00 89 1011.3
20260502103442 55 70 3.0 4.0 0.00 0.00 0.00 89 1011.2
20260502102939 55 346 2.0 2.0 0.00 0.00 0.00 89 1011.3
20260502102436 55 321 1.0 2.0 0.00 0.00 0.00 90 1011.5
20260502101933 55 117 0.0 1.0 0.00 0.00 0.00 89 1011.3
20260502101431 55 201 0.0 1.0 0.00 0.00 0.00 88 1011.5
20260502100929 55 64 1.0 2.0 0.00 0.00 0.00 87 1011.4
20260502100428 56 59 1.0 2.0 0.00 0.00 0.00 85 1011.5
20260502091402 56 61 2.0 3.0 0.00 0.00 0.00 86 1011.8
20260502090859 56 286 1.0 1.0 0.00 0.00 0.00 85 1011.8
20260502090356 56 9 0.0 2.0 0.00 0.00 0.00 85 1011.9
20260502071251 57 276 3.0 4.0 0.00 0.00 0.00 84 1012.5
20260502070749 57 247 1.0 2.0 0.00 0.00 0.00 85 1012.5
20260502070246 57 162 0.0 1.0 0.00 0.00 0.00 84 1012.6
20260502065745 57 40 2.0 2.0 0.00 0.00 0.00 83 1012.4
20260502065243 57 103 0.0 0.0 0.00 0.00 0.00 83 1012.4
20260502064741 57 62 0.0 2.0 0.00 0.00 0.00 82 1012.3
20260502064238 58 142 0.0 1.0 0.00 0.00 0.00 82 1012.4
20260502063735 58 308 2.0 3.0 0.00 0.00 0.00 81 1012.4
20260502063233 57 309 0.0 2.0 0.00 0.00 0.00 83 1012.3
20260502062730 58 105 0.0 3.0 0.00 0.00 0.00 82 1012.4
20260502062228 58 296 1.0 3.0 0.00 0.00 0.00 81 1012.4
20260502061726 58 288 1.0 3.0 0.00 0.00 0.00 81 1012.6
20260502061223 58 280 1.0 2.0 0.00 0.00 0.00 82 1012.6
20260502060718 58 307 2.0 3.0 0.00 0.00 0.00 82 1012.4
20260502060215 58 314 2.0 3.0 0.00 0.00 0.00 82 1012.5
20260502055713 58 100 2.0 3.0 0.00 0.00 0.00 81 1012.3
20260502055210 58 56 1.0 2.0 0.00 0.00 0.00 81 1012.6
20260502054709 59 25 0.0 1.0 0.00 0.00 0.00 80 1012.4
20260502054206 59 110 0.0 2.0 0.00 0.00 0.00 80 1012.5
20260502053704 59 288 2.0 3.0 0.00 0.00 0.00 80 1012.3
20260502053201 59 328 3.0 3.0 0.00 0.00 0.00 80 1012.4
20260502052659 59 119 1.0 2.0 0.00 0.00 0.00 79 1012.3
20260502052157 60 101 1.0 2.0 0.00 0.00 0.00 79 1012.5
20260502051655 60 296 1.0 2.0 0.00 0.00 0.00 78 1012.3
20260502051152 60 242 0.0 2.0 0.00 0.00 0.00 77 1012.4
20260502050649 60 304 1.0 2.0 0.00 0.00 0.00 78 1012.3
20260502050145 60 256 0.0 1.0 0.00 0.00 0.00 78 1012.4
20260502045642 60 93 1.0 2.0 0.00 0.00 0.00 78 1012.3
20260502045139 61 65 1.0 2.0 0.00 0.00 0.00 78 1012.2
20260502044636 61 314 2.0 2.0 0.00 0.00 0.00 76 1012.2
20260502044132 61 319 2.0 2.0 0.00 0.00 0.00 76 1012.3
20260502043630 62 304 0.0 2.0 0.00 0.00 0.00 76 1012.2
20260502043127 62 93 2.0 4.0 0.00 0.00 0.00 75 1011.9
20260502042621 62 262 0.0 3.0 0.00 0.00 0.00 73 1011.9
20260502042118 62 103 0.0 2.0 0.00 0.00 0.00 74 1011.9
20260502041616 62 271 2.0 3.0 0.00 0.00 0.00 74 1011.9
20260502041113 62 279 2.0 3.0 0.00 0.00 0.00 74 1011.8
20260502040609 63 29 1.0 3.0 0.00 0.00 0.00 72 1011.7
20260502040107 64 281 3.0 4.0 0.00 0.00 0.00 68 1011.8
20260502035603 64 290 0.0 1.0 0.00 0.00 0.00 69 1011.7
20260502035100 64 68 2.0 2.0 0.00 0.00 0.00 67 1011.6
20260502034558 65 63 1.0 3.0 0.00 0.00 0.00 68 1011.7
20260502034056 65 326 2.0 3.0 0.00 0.00 0.00 65 1011.3
20260502033554 67 31 1.0 3.0 0.00 0.00 0.00 61 1011.4
20260502033051 66 313 3.0 6.0 0.00 0.00 0.00 65 1011.5
20260502032547 67 301 3.0 3.0 0.00 0.00 0.00 63 1011.1
20260502032043 67 274 0.0 2.0 0.00 0.00 0.00 63 1011.2
20260502031541 67 318 0.0 3.0 0.00 0.00 0.00 62 1011.2
20260502031039 68 301 0.0 2.0 0.00 0.00 0.00 63 1011.3
20260502030538 68 154 0.0 3.0 0.00 0.00 0.00 61 1011.1
20260502030035 68 308 3.0 6.0 0.00 0.00 0.00 60 1011.1
20260502025532 68 274 3.0 6.0 0.00 0.00 0.00 60 1011.2
20260502025030 69 286 3.0 4.0 0.00 0.00 0.00 58 1011.1
20260502024527 70 313 4.0 7.0 0.00 0.00 0.00 54 1011.2
20260502024026 70 291 1.0 5.0 0.00 0.00 0.00 57 1011.0
20260502023523 70 305 2.0 6.0 0.00 0.00 0.00 56 1010.9
20260502023020 70 287 4.0 7.0 0.00 0.00 0.00 57 1011.0
20260502022517 70 263 5.0 7.0 0.00 0.00 0.00 56 1011.0
20260502022015 70 277 5.0 7.0 0.00 0.00 0.00 57 1011.1
20260502021512 71 267 5.0 7.0 0.00 0.00 0.00 53 1011.0
20260502021008 71 268 8.0 8.0 0.00 0.00 0.00 54 1011.0
20260502020506 72 287 5.0 11.0 0.00 0.00 0.00 49 1011.1
20260502020003 72 273 6.0 9.0 0.00 0.00 0.00 50 1011.1
20260502015501 74 283 5.0 9.0 0.00 0.00 0.00 49 1011.1
20260502014956 73 267 7.0 9.0 0.00 0.00 0.00 50 1011.1
20260502014453 73 257 7.0 10.0 0.00 0.00 0.00 46 1011.1
20260502013950 72 276 5.0 8.0 0.00 0.00 0.00 53 1011.3
20260502013446 72 285 4.0 7.0 0.00 0.00 0.00 52 1011.1
20260502012942 73 280 6.0 9.0 0.00 0.00 0.00 55 1011.2
20260502012440 73 283 5.0 7.0 0.00 0.00 0.00 54 1011.2
20260502011938 73 261 3.0 6.0 0.00 0.00 0.00 55 1011.2
20260502011433 74 273 3.0 7.0 0.00 0.00 0.00 55 1011.4
20260502010931 74 278 4.0 6.0 0.00 0.00 0.00 55 1011.2
20260502010427 75 282 4.0 6.0 0.00 0.00 0.00 53 1011.2
20260502005923 77 269 2.0 4.0 0.00 0.00 0.00 55 1011.3
20260502005421 78 212 0.0 2.0 0.00 0.00 0.00 59 1011.4
20260502004920 78 227 0.0 2.0 0.00 0.00 0.00 55 1011.5
20260502004415 79 193 0.0 1.0 0.00 0.00 0.00 41 1011.4
20260502003912 79 255 0.0 3.0 0.00 0.00 0.00 37 1011.4
20260502003410 78 242 0.0 3.0 0.00 0.00 0.00 40 1011.3
20260502002905 78 242 1.0 3.0 0.00 0.00 0.00 47 1011.4
20260502002403 78 235 3.0 4.0 0.00 0.00 0.00 36 1011.3
20260502001855 78 266 2.0 4.0 0.00 0.00 0.00 45 1011.6
20260502001352 78 227 2.0 3.0 0.00 0.00 0.00 36 1011.5
20260502000850 78 229 4.0 7.0 0.00 0.00 0.00 34 1011.6
20260502000348 78 256 4.0 8.0 0.00 0.00 0.00 40 1011.4
20260501235844 78 219 3.0 10.0 0.00 0.00 0.00 38 1011.5
20260501235339 78 205 3.0 7.0 0.00 0.00 0.00 40 1011.7
20260501234835 79 284 3.0 4.0 0.00 0.00 0.00 37 1011.7
20260501234332 79 196 3.0 5.0 0.00 0.00 0.00 37 1011.8
20260501233831 78 248 5.0 8.0 0.00 0.00 0.00 35 1011.7
20260501233328 78 275 3.0 4.0 0.00 0.00 0.00 36 1011.8
20260501232823 77 256 5.0 7.0 0.00 0.00 0.00 38 1011.8
20260501232321 78 245 5.0 6.0 0.00 0.00 0.00 38 1011.9
20260501231818 78 162 3.0 5.0 0.00 0.00 0.00 37 1012.0
20260501231316 78 231 2.0 7.0 0.00 0.00 0.00 38 1012.0
20260501230814 77 214 3.0 6.0 0.00 0.00 0.00 36 1012.0
20260501230313 77 226 3.0 6.0 0.00 0.00 0.00 40 1012.1
20260501225810 77 250 2.0 6.0 0.00 0.00 0.00 41 1012.3
20260501225308 77 212 8.0 8.0 0.00 0.00 0.00 37 1012.4
20260501224803 77 265 4.0 8.0 0.00 0.00 0.00 40 1012.4
20260501224301 77 271 0.0 4.0 0.00 0.00 0.00 39 1012.3
20260501223756 77 239 3.0 5.0 0.00 0.00 0.00 41 1012.6
20260501223253 76 246 5.0 7.0 0.00 0.00 0.00 40 1012.6
20260501222749 76 206 5.0 7.0 0.00 0.00 0.00 40 1012.8
20260501222247 77 201 2.0 8.0 0.00 0.00 0.00 40 1012.6
20260501221744 77 190 2.0 5.0 0.00 0.00 0.00 40 1012.8
20260501221241 77 246 3.0 4.0 0.00 0.00 0.00 39 1013.0
20260501220738 77 207 2.0 6.0 0.00 0.00 0.00 36 1012.8
20260501220235 77 271 2.0 8.0 0.00 0.00 0.00 38 1012.9
20260501215732 77 233 6.0 8.0 0.00 0.00 0.00 33 1012.8
20260501215227 77 233 5.0 9.0 0.00 0.00 0.00 35 1013.0
20260501214723 78 182 3.0 9.0 0.00 0.00 0.00 37 1013.2
20260501214219 78 228 2.0 7.0 0.00 0.00 0.00 38 1013.1
20260501213716 78 198 3.0 7.0 0.00 0.00 0.00 36 1013.0
20260501213212 79 204 4.0 8.0 0.00 0.00 0.00 36 1013.1
20260501212708 80 157 3.0 4.0 0.00 0.00 0.00 35 1013.2
20260501212205 80 264 1.0 3.0 0.00 0.00 0.00 33 1013.2
20260501211702 79 193 3.0 4.0 0.00 0.00 0.00 34 1013.2
20260501211159 79 185 3.0 5.0 0.00 0.00 0.00 35 1012.9
20260501210656 79 225 2.0 7.0 0.00 0.00 0.00 37 1012.9
20260501210152 78 281 1.0 5.0 0.00 0.00 0.00 39 1013.1
20260501205648 78 226 4.0 7.0 0.00 0.00 0.00 41 1013.1
20260501205146 79 170 3.0 5.0 0.00 0.00 0.00 38 1013.1
20260501204643 79 230 0.0 4.0 0.00 0.00 0.00 35 1013.2
20260501204138 79 208 3.0 6.0 0.00 0.00 0.00 36 1013.1
20260501203635 78 198 2.0 6.0 0.00 0.00 0.00 39 1013.3
20260501203133 79 222 2.0 7.0 0.00 0.00 0.00 42 1013.4
20260501202630 79 191 2.0 5.0 0.00 0.00 0.00 37 1013.6
20260501202127 79 204 2.0 4.0 0.00 0.00 0.00 44 1013.5
20260501201624 78 222 2.0 7.0 0.00 0.00 0.00 41 1013.6
20260501201120 78 154 0.0 4.0 0.00 0.00 0.00 38 1013.6
20260501200617 77 179 3.0 9.0 0.00 0.00 0.00 41 1013.8
20260501200115 77 175 4.0 7.0 0.00 0.00 0.00 43 1013.7
20260501195612 77 185 2.0 7.0 0.00 0.00 0.00 44 1013.9
20260501195108 78 213 3.0 6.0 0.00 0.00 0.00 45 1013.6